RADUGA 13 [-]

Last updated on Aug. 12, 2020, 5:32 a.m. UTC

1 14307U 83088A   20224.84193286 -.00000003  00000-0  00000-0 0  9997
2 14307  13.5030 330.1214 0018613  23.6125 339.8874  0.98172458 97980
UTC
Height (km)
Latitude
Longitude
Inclination
Orbital Period
UTC large
Height (km)
Speed (km/s)
/
Latitude / Longitude
Inclination (degrees)
Orbital Period (minutes)
Azimuth
Elevation
Range (km)
Doppler Factor
iOS Compass Heading
iOS Angle

Next 30 passes for location: Hong Kong

Rise time Rise Azimuth (degrees) Set time Set Azimuth (degrees) Duration Max altitude (degrees)

No matching passes for this satellites